[[{"header":{"parameterUnit":"m.s-1","parameterCategory":1,"la1":30.2991,"la2":30.254,"lo1":-89.0895,"lo2":-89.0444,"dy":0.0017,"dx":0.0017,"nx":28,"ny":28,"refTime":"2025-04-03T09:00:00:Z","depth":0,"parameterNumber":2,"parameterNumberName":"U-component_of_WINDS"},"data":[0,0,0,0,0,0,0,0,0,0,0,0,0,0,0,0,0,0,0,0,0,0,0,0,0,0,0,0,0,0,0,0,0,0,0,0,0,0,0,0,0,0,0,0,0,0,0,0,0,0,0,0,0,0,0,0,0,0,-5.2245,-5.2247,0,-5.2407,-5.2409,-5.2411,-5.2427,-5.2425,-5.2424,-5.2422,-5.2588,-5.2594,-5.2599,0,0,0,0,0,0,0,0,0,0,0,0,0,-5.1951,-5.1956,-5.2245,-5.2247,-5.2249,-5.2407,-5.2409,-5.2411,-5.2427,-5.2425,-5.2423,-5.2421,-5.2586,-5.2593,-5.26,0,0,0,0,0,0,0,0,0,0,0,0,0,-5.2092,-5.1958,-5.2245,-5.2276,-5.2281,-5.2406,-5.2409,-5.2412,-5.2428,-5.2425,-5.2423,-5.242,-5.2583,-5.2592,-5.2601,-5.2707,0,0,-5.2628,-5.2632,0,0,0,0,0,0,0,0,-5.2084,-5.2103,-5.2269,-5.2274,-5.2279,-5.2394,-5.2366,-5.2511,-5.2428,-5.2372,-5.2422,-5.2419,-5.2525,-5.2539,-5.2575,-5.2714,-5.2721,-5.2629,-5.2635,-5.2638,-5.2641,0,0,0,0,0,0,0,-5.2074,-5.2096,-5.2309,-5.2272,-5.2278,-5.2283,-5.23,-5.2394,-5.2461,-5.2377,-5.2378,-5.2397,-5.2528,-5.2566,-5.2579,-5.2724,-5.2629,-5.2637,-5.2642,-5.2646,-5.296,-5.2963,0,0,0,0,0,0,-5.2059,-5.2088,-5.2304,-5.2314,-5.2174,-5.229,-5.2309,-5.236,-5.246,-5.2473,-5.2399,-5.2397,-5.2552,-5.2568,-5.2585,-5.2715,-5.2638,-5.2647,-5.2652,-5.2957,-5.296,-5.2964,0,0,0,0,0,0,-5.2052,-5.2078,-5.2298,-5.2202,-5.223,-5.2298,-5.2354,-5.2364,-5.2403,-5.2477,-5.2489,-5.2426,-5.2551,-5.2572,-5.2677,-5.2721,-5.2651,-5.2659,-5.2953,-5.2958,-5.2962,-5.2977,0,0,0,0,0,0,-5.2044,-5.2075,-5.2116,-5.2202,-5.2235,-5.2386,-5.2357,-5.2369,-5.2418,-5.2418,-5.2505,-5.2517,-5.255,-5.2663,-5.2685,-5.2732,-5.2666,-5.295,-5.2955,-5.2961,-5.2972,-5.2981,-5.2988,0,0,0,0,0,-5.2033,-5.2113,-5.2118,-5.2144,-5.2287,-5.2389,-5.2407,-5.2444,-5.2422,-5.2463,-5.2511,-5.2515,-5.2713,-5.2674,-5.2699,-5.2749,-5.2947,-5.2954,-5.296,-5.2969,-5.2979,-5.2988,0,0,0,0,0,0,-5.2029,-5.2125,-5.2131,-5.2241,-5.2307,-5.2391,-5.2444,-5.2454,-5.2526,-5.2522,-5.2565,-5.2585,-5.2687,-5.2729,-5.2683,-5.2857,-5.2828,-5.284,-5.2826,-5.2836,-5.2844,-5.2831,-5.2673,0,0,0,0,0,-5.2041,-5.2116,-5.2196,-5.2285,-5.2318,-5.2376,-5.2421,-5.2444,-5.2513,-5.2541,-5.2596,-5.2664,-5.2742,-5.2792,-5.2867,-5.298,-5.2999,-5.3027,-5.3035,-5.3041,-5.305,-5.3113,-5.3127,-5.2985,-5.2985,-5.2985,0,0,-5.2066,-5.2128,-5.2172,-5.2286,-5.2339,-5.2416,-5.2398,-5.248,-5.2537,-5.2553,-5.2655,-5.2699,-5.2777,-5.2886,-5.2936,-5.2923,-5.3094,-5.3049,-5.3054,-5.306,-5.3122,-5.3135,-5.3147,-5.299,-5.2989,-5.2988,0,0,-5.2151,-5.2206,-5.2286,-5.2341,-5.2422,-5.2461,-5.248,-5.2564,-5.2593,-5.2697,-5.2711,-5.278,-5.2913,-5.2968,-5.3014,-5.3123,-5.3129,-5.3146,-5.3187,-5.3248,-5.3259,-5.3269,-5.3308,-5.3321,-5.3156,-5.3156,-5.3156,0,-5.2172,-5.2288,-5.2327,-5.2408,-5.2458,-5.2478,-5.256,-5.2611,-5.2713,-5.2747,-5.2732,-5.29,-5.2954,-5.3076,-5.3103,-5.314,-5.3163,-5.3135,-5.3255,-5.3265,-5.3275,-5.3312,-5.3327,-5.3157,-5.3157,-5.3157,-5.3157,0,-5.231,-5.239,-5.2446,-5.2544,-5.26,-5.2682,-5.2734,-5.2786,-5.2805,-5.2845,-5.2951,-5.3017,-5.3106,-5.3138,-5.3156,-5.3263,-5.3253,-5.3246,-5.3217,-5.3289,-5.3325,-5.3339,-5.316,-5.3159,-5.3159,-5.3158,0,0,-5.2394,-5.2514,-5.2534,-5.2579,-5.2672,-5.2735,-5.2818,-5.2906,-5.2951,-5.3021,-5.3092,-5.3205,-5.32,-5.3252,-5.3277,-5.3331,-5.3413,-5.3318,-5.332,-5.3332,-5.3535,-5.3539,-5.3555,-5.3419,-5.3422,-5.3424,-5.3529,0,-5.2488,-5.2636,-5.2675,-5.2801,-5.2876,-5.2897,-5.297,-5.3035,-5.3075,-5.3145,-5.319,-5.327,-5.3257,-5.3288,-5.3342,-5.3392,-5.3454,-5.3385,-5.3485,-5.3488,-5.3463,-5.3574,-5.3577,-5.3672,-5.3543,-5.3545,-5.3547,0,-5.2618,-5.2691,-5.2825,-5.2909,-5.2942,-5.3006,-5.3091,-5.3158,-5.3233,-5.3259,-5.3318,-5.3339,-5.3427,-5.3395,-5.3518,-5.347,-5.3514,-5.3544,-5.3549,-5.3558,-5.352,-5.3585,-5.3704,-5.3717,-5.3569,-5.3568,-5.3566,0,-5.2665,-5.2798,-5.2895,-5.2933,-5.3034,-5.3079,-5.3123,-5.3196,-5.3247,-5.3321,-5.3355,-5.3439,-5.3484,-5.3549,-5.3593,-5.3565,-5.3712,-5.3683,-5.3735,-5.3734,-5.3763,-5.3761,-5.389,-5.3794,-5.3794,-5.3794,-5.3793,0,-5.2765,-5.2846,-5.2917,-5.2977,-5.3069,-5.3113,-5.3203,-5.3248,-5.3313,-5.3382,-5.3406,-5.347,-5.3525,-5.3597,-5.3632,-5.3728,-5.3749,-5.3773,-5.3781,-5.377,-5.3766,-5.3797,-5.3791,-5.3798,-5.3797,-5.3796,-5.3795,0,-5.2832,-5.2883,-5.2991,-5.3078,-5.3102,-5.3166,-5.3241,-5.33,-5.3342,-5.343,-5.3453,-5.3519,-5.3606,-5.3656,-5.3765,-5.3789,-5.3896,-5.3901,-5.387,-5.3873,-5.3922,-5.3916,-5.4075,-5.4098,-5.3987,-5.3988,-5.3989,0,-5.2892,-5.2955,-5.3049,-5.3097,-5.3142,-5.322,-5.3272,-5.332,-5.3373,-5.3465,-5.3513,-5.3601,-5.3674,-5.3811,-5.3869,-5.3954,-5.3961,-5.4011,-5.3973,-5.3961,-5.3961,-5.3956,-5.3962,-5.4016,-5.4017,-5.4018,-5.4018,0,-5.2993,-5.3016,-5.309,-5.3175,-5.3237,-5.3305,-5.3373,-5.3412,-5.3471,-5.353,-5.3619,-5.3676,-5.3788,-5.3875,-5.3965,-5.4011,-5.4025,-5.403,-5.4047,-5.4035,-5.4014,-5.4025,-5.3886,-5.4026,-5.4025,-5.4024,-5.4024,-5.4024,-5.3058,-5.3115,-5.319,-5.3273,-5.333,-5.3393,-5.3454,-5.3504,-5.3579,-5.3674,-5.3698,-5.3791,-5.3866,-5.3988,-5.4037,-5.4111,-5.4102,-5.4126,-5.4132,-5.4137,-5.4138,-5.4004,-5.4127,-5.4127,-5.4127,-5.4127,-5.4127,0,-5.3159,-5.3209,-5.3285,-5.338,-5.3446,-5.3454,-5.3531,-5.3585,-5.3667,-5.3736,-5.3808,-5.3911,-5.3996,-5.4062,-5.415,-5.4197,-5.4205,-5.4218,-5.4214,-5.4225,-5.4141,-5.4117,-5.4209,-5.4209,-5.4209,-5.4209,-5.4209,-5.4209,-5.3219,-5.3316,-5.3348,-5.3474,-5.3524,-5.3616,-5.3659,-5.3718,-5.3774,-5.3887,-5.3958,-5.4001,-5.4069,-5.4163,-5.4242,-5.4259,-5.429,-5.4301,-5.432,-5.4239,-5.423,-5.4222,-5.42,-5.4308,-5.4308,-5.4397,-5.4398,-5.4399]},{"header":{"parameterUnit":"m.s-1","parameterCategory":1,"la1":30.2991,"la2":30.254,"lo1":-89.0895,"lo2":-89.0444,"dy":0.0017,"dx":0.0017,"nx":28,"ny":28,"refTime":"2025-04-03T09:00:00:Z","depth":0,"parameterNumber":3,"parameterNumberName":"V-component_of_WINDS"},"data":[0,0,0,0,0,0,0,0,0,0,0,0,0,0,0,0,0,0,0,0,0,0,0,0,0,0,0,0,0,0,0,0,0,0,0,0,0,0,0,0,0,0,0,0,0,0,0,0,0,0,0,0,0,0,0,0,0,0,5.3107,5.3109,0,5.3225,5.3226,5.3227,5.3231,5.323,5.3228,5.3227,5.3346,5.3351,5.3355,0,0,0,0,0,0,0,0,0,0,0,0,0,5.2888,5.2892,5.3107,5.3109,5.311,5.3224,5.3226,5.3228,5.3231,5.323,5.3228,5.3226,5.3345,5.335,5.3355,0,0,0,0,0,0,0,0,0,0,0,0,0,5.2992,5.2893,5.3107,5.3126,5.3129,5.3224,5.3226,5.3228,5.3232,5.323,5.3227,5.3225,5.3343,5.3349,5.3356,5.344,0,0,5.3377,5.338,0,0,0,0,0,0,0,0,5.2986,5.3,5.3122,5.3125,5.3128,5.3211,5.3192,5.3299,5.3232,5.3193,5.3227,5.3224,5.3303,5.3313,5.3339,5.3446,5.3451,5.3377,5.3381,5.3384,5.3386,0,0,0,0,0,0,0,5.2979,5.2995,5.3154,5.3123,5.3127,5.3129,5.3141,5.3213,5.3258,5.3196,5.3196,5.321,5.3304,5.3333,5.3342,5.3453,5.3377,5.3383,5.3387,5.339,5.3638,5.3641,0,0,0,0,0,0,5.2968,5.2989,5.315,5.3157,5.305,5.3135,5.3149,5.3187,5.3257,5.3266,5.3212,5.321,5.3322,5.3334,5.3346,5.3452,5.3384,5.3391,5.3394,5.3636,5.3639,5.3641,0,0,0,0,0,0,5.2963,5.2982,5.3145,5.3073,5.3094,5.3141,5.3183,5.319,5.3219,5.327,5.3278,5.3233,5.3321,5.3337,5.3418,5.3457,5.3394,5.34,5.3633,5.3637,5.364,5.3663,0,0,0,0,0,0,5.2957,5.298,5.3012,5.3074,5.3098,5.3214,5.3186,5.3194,5.323,5.3229,5.3291,5.33,5.3321,5.3408,5.3425,5.3465,5.3405,5.3629,5.3634,5.3639,5.3659,5.3667,5.3674,0,0,0,0,0,5.2949,5.3013,5.3014,5.3033,5.3139,5.3216,5.323,5.3253,5.3233,5.3267,5.33,5.3298,5.3449,5.3416,5.3435,5.3478,5.3627,5.3633,5.3639,5.3656,5.3666,5.3674,0,0,0,0,0,0,5.2954,5.3022,5.3023,5.3109,5.3157,5.3217,5.3259,5.3263,5.3317,5.3313,5.3339,5.3354,5.3435,5.3464,5.3426,5.3565,5.3536,5.3546,5.3543,5.3553,5.356,5.3552,5.3411,0,0,0,0,0,5.2965,5.3022,5.3078,5.3149,5.3173,5.3212,5.3247,5.3261,5.3311,5.3331,5.337,5.342,5.3479,5.3517,5.3574,5.3663,5.3678,5.3702,5.371,5.3716,5.3724,5.3777,5.3789,5.366,5.366,5.366,0,0,5.2988,5.3033,5.3067,5.3151,5.319,5.325,5.3229,5.3292,5.3337,5.3341,5.3421,5.3451,5.3508,5.3595,5.3634,5.3621,5.3763,5.3723,5.3727,5.3733,5.3784,5.3796,5.3807,5.3664,5.3663,5.3663,0,0,5.3062,5.31,5.3165,5.3205,5.3265,5.3291,5.3306,5.3367,5.3387,5.3468,5.3473,5.3527,5.3627,5.3669,5.3703,5.3796,5.3797,5.3813,5.3853,5.3904,5.3914,5.3923,5.3959,5.3971,5.3821,5.3821,5.3822,0,5.3084,5.3174,5.3197,5.3262,5.33,5.3308,5.3374,5.3412,5.3487,5.3513,5.3497,5.3626,5.3664,5.3762,5.3785,5.3812,5.3832,5.3807,5.3911,5.392,5.3929,5.3964,5.3977,5.3823,5.3823,5.3823,5.3823,0,5.3199,5.3261,5.3306,5.338,5.3423,5.3488,5.3523,5.3564,5.3574,5.3603,5.3686,5.3733,5.3801,5.3825,5.3835,5.3925,5.3916,5.3905,5.3877,5.3943,5.3976,5.3989,5.3826,5.3825,5.3825,5.3824,0,0,5.3278,5.3366,5.3383,5.3418,5.3485,5.3534,5.3601,5.3668,5.3704,5.3756,5.3813,5.39,5.3891,5.393,5.3946,5.399,5.4064,5.3975,5.3976,5.3992,5.417,5.4179,5.4193,5.4065,5.4068,5.407,5.4166,0,5.3361,5.3479,5.3504,5.3607,5.3667,5.3676,5.3734,5.3782,5.3811,5.3866,5.3897,5.3959,5.3942,5.3966,5.4011,5.4046,5.4101,5.4039,5.412,5.4123,5.4108,5.421,5.4219,5.4307,5.4178,5.418,5.4182,0,5.3473,5.353,5.3639,5.3702,5.3728,5.3779,5.3845,5.3897,5.3953,5.3971,5.4016,5.4027,5.4098,5.4066,5.4165,5.4123,5.4158,5.418,5.4184,5.4194,5.4157,5.4224,5.4335,5.435,5.4202,5.42,5.4199,0,5.3523,5.3626,5.3706,5.3735,5.381,5.3847,5.3879,5.3933,5.3973,5.4031,5.4057,5.4122,5.4157,5.4207,5.4236,5.421,5.4334,5.4304,5.4353,5.4352,5.4379,5.4377,5.45,5.4399,5.4398,5.4398,5.4398,0,5.3614,5.3681,5.373,5.3779,5.3855,5.3884,5.3958,5.3991,5.4039,5.4096,5.4107,5.416,5.4194,5.4252,5.4275,5.4356,5.4371,5.4389,5.4394,5.4389,5.4387,5.4413,5.4408,5.4402,5.4401,5.44,5.44,0,5.3683,5.3718,5.3806,5.387,5.3888,5.3942,5.3997,5.4046,5.4075,5.4147,5.4165,5.4212,5.4281,5.4315,5.44,5.4416,5.4508,5.4508,5.4489,5.4492,5.4539,5.4535,5.4684,5.4706,5.4588,5.4589,5.459,0,5.374,5.3792,5.3863,5.3902,5.3936,5.3998,5.404,5.407,5.4113,5.4183,5.4224,5.4294,5.4352,5.4462,5.4504,5.457,5.4574,5.4621,5.4584,5.4578,5.4578,5.4575,5.4582,5.4628,5.463,5.463,5.4631,0,5.3838,5.3853,5.3913,5.398,5.403,5.4084,5.4136,5.4168,5.4207,5.4255,5.4327,5.4372,5.4461,5.4531,5.4601,5.4635,5.4641,5.4643,5.4658,5.4654,5.4642,5.4652,5.451,5.4639,5.4639,5.4638,5.4638,5.4637,5.3904,5.3952,5.401,5.4078,5.4121,5.4171,5.4221,5.4258,5.4318,5.4393,5.4407,5.4484,5.4541,5.4636,5.4673,5.4734,5.4724,5.4745,5.4751,5.4756,5.476,5.4631,5.4746,5.4746,5.4746,5.4746,5.4746,0,5.4005,5.4043,5.4105,5.418,5.4233,5.4234,5.4293,5.4338,5.4406,5.4459,5.4516,5.46,5.4669,5.4717,5.4787,5.4827,5.4832,5.4845,5.4843,5.4852,5.4764,5.4745,5.484,5.484,5.484,5.484,5.484,5.484,5.4064,5.4146,5.4169,5.4274,5.4312,5.4388,5.4422,5.4469,5.4512,5.4606,5.4663,5.4694,5.4746,5.4821,5.4885,5.4897,5.4923,5.4937,5.495,5.4867,5.4857,5.4848,5.483,5.4942,5.4942,5.5033,5.5033,5.5034]}]]